Torna al catalogo

CAS-2T

CZ-11 R/B

AttivoRadioamatoreSSO
NORAD 41847·PAYLOAD·🇨🇳 China

Lanciato Nov 9, 2016 da Jiuquan Satellite Launch Center

Loading…

Prossimi Passaggi (prossime 24 ore)

TLE

AggiornatoSource: AMSAT

Epoca: Sep 14, 2026, 05:34 UTC

1 41847U 16066G   26257.23211286  .00000860  00000-0  13003-3 0  9994
2 41847  98.3755 331.9432 0340498 219.1767 138.4327 14.44840123517652

Traccia CAS-2T in tempo reale con AllMySat

Download on the App Store